CW9197 Weather Reports


Display with metric or nautical units.
time (UTC)temp
F
wind
direction
speed
MPH
gust
MPH
rain 1hr
in
rain 24hr
in
rain mn
in
humidity
%
barometer
mb
20260508131505 53 323 6.0 14.0 0.00 0.00 0.00 35 1026.6
20260508130505 53 348 5.0 11.0 0.00 0.00 0.00 36 1026.5
20260508125504 54 357 4.0 8.0 0.00 0.00 0.00 36 1026.5
20260508124503 54 284 5.0 12.0 0.00 0.00 0.00 38 1026.5
20260508123503 53 306 5.0 11.0 0.00 0.00 0.00 37 1026.6
20260508122505 55 343 4.0 13.0 0.00 0.00 0.00 37 1026.5
20260508121524 52 316 4.0 8.0 0.00 0.00 0.00 40 1026.5
20260508120504 53 350 4.0 11.0 0.00 0.00 0.00 38 1026.5
20260508115504 53 323 5.0 11.0 0.00 0.00 0.00 38 1026.5
20260508114503 55 316 3.0 8.0 0.00 0.00 0.00 38 1026.4
20260508113505 54 331 4.0 8.0 0.00 0.00 0.00 39 1026.3
20260508112524 53 315 5.0 16.0 0.00 0.00 0.00 39 1026.3
20260508111504 54 308 5.0 13.0 0.00 0.00 0.00 39 1026.3
20260508110503 54 329 3.0 6.0 0.00 0.00 0.00 39 1026.1
20260508105503 53 347 4.0 11.0 0.00 0.00 0.00 40 1026.1
20260508104504 53 328 5.0 11.0 0.00 0.00 0.00 40 1026.1
20260508103504 53 302 6.0 13.0 0.00 0.00 0.00 41 1026.0
20260508102504 52 5 4.0 11.0 0.00 0.00 0.00 41 1025.9
20260508101503 53 308 5.0 10.0 0.00 0.00 0.00 40 1025.8
20260508100503 54 275 3.0 7.0 0.00 0.00 0.00 44 1025.8
20260508095505 51 328 5.0 14.0 0.00 0.00 0.00 44 1025.8
20260508094505 51 353 4.0 10.0 0.00 0.00 0.00 46 1025.7
20260508093504 51 347 4.0 11.0 0.00 0.00 0.00 46 1025.8
20260508092504 50 306 4.0 9.0 0.00 0.00 0.00 51 1025.7
20260508091503 49 12 5.0 8.0 0.00 0.00 0.00 51 1025.7
20260508090504 49 309 5.0 11.0 0.00 0.00 0.00 52 1025.6
20260508085505 49 357 6.0 12.0 0.00 0.00 0.00 52 1025.5
20260508084504 49 301 5.0 16.0 0.00 0.00 0.00 52 1025.4
20260508083503 48 32 5.0 11.0 0.00 0.00 0.00 54 1025.4
20260508082503 49 356 4.0 10.0 0.00 0.00 0.00 54 1025.4
20260508081505 48 351 5.0 11.0 0.00 0.00 0.00 57 1025.4
20260508080504 48 7 5.0 11.0 0.00 0.00 0.00 56 1025.3
20260508075504 47 357 5.0 10.0 0.00 0.00 0.00 57 1025.2
20260508074503 48 332 5.0 9.0 0.00 0.00 0.00 58 1025.1
20260508073504 47 333 5.0 11.0 0.00 0.00 0.00 58 1024.9
20260508072504 47 316 6.0 14.0 0.00 0.00 0.00 59 1024.7
20260508071504 46 45 6.0 10.0 0.00 0.00 0.00 59 1024.6
20260508070524 47 2 6.0 16.0 0.00 0.00 0.00 58 1024.5
20260508065523 46 335 6.0 13.0 0.00 0.00 0.00 61 1024.4
20260508064506 45 357 5.0 11.0 0.00 0.00 0.00 64 1024.3
20260508063507 43 327 3.0 8.0 0.00 0.00 0.00 69 1024.2
20260508062504 46 296 6.0 12.0 0.00 0.00 0.00 65 1024.1
20260508061504 47 339 3.0 9.0 0.00 0.00 0.00 63 1023.9
20260508060504 44 32 5.0 12.0 0.00 0.00 0.00 66 1023.8
20260508055504 42 8 4.0 11.0 0.00 0.00 0.00 71 1023.7
20260508054503 42 323 5.0 13.0 0.00 0.00 0.00 73 1023.7
20260508053503 44 334 6.0 12.0 0.00 0.00 0.00 70 1023.5
20260508052505 43 352 4.0 8.0 0.00 0.00 0.00 73 1023.5
20260508051504 41 325 5.0 10.0 0.00 0.00 0.00 77 1023.3
20260508050523 40 319 4.0 12.0 0.00 0.00 0.00 80 1023.2
20260508045503 39 316 5.0 12.0 0.00 0.00 0.00 80 1023.1
20260508044503 39 309 5.0 14.0 0.00 0.00 0.00 81 1023.0
20260508043505 39 320 4.0 11.0 0.00 0.00 0.00 82 1022.7
20260508042504 38 308 4.0 11.0 0.00 0.00 0.00 82 1022.6
20260508041504 38 322 4.0 9.0 0.00 0.00 0.00 83 1022.5
20260508040503 38 296 4.0 9.0 0.00 0.00 0.00 84 1022.4
20260508035504 37 324 3.0 11.0 0.00 0.00 0.00 84 1022.2
20260508034504 37 290 4.0 9.0 0.00 0.00 0.00 84 1022.2
20260508033504 37 299 4.0 11.0 0.00 0.00 0.00 83 1022.0
20260508032504 38 315 4.0 7.0 0.00 0.00 0.00 82 1021.9
20260508031503 38 293 4.0 13.0 0.00 0.00 0.00 80 1021.7
20260508030505 37 284 5.0 11.0 0.00 0.00 0.00 82 1021.6
20260508025525 36 275 5.0 8.0 0.00 0.00 0.00 84 1021.5
20260508024505 35 284 4.0 8.0 0.00 0.00 0.00 86 1021.4
20260508023504 34 281 4.0 7.0 0.00 0.00 0.00 86 1021.4
20260508022503 35 281 3.0 6.0 0.00 0.00 0.00 85 1021.2
20260508021504 35 270 4.0 8.0 0.00 0.00 0.00 85 1021.1
20260508020504 34 300 3.0 7.0 0.00 0.00 0.00 85 1021.0
20260508015504 34 297 4.0 9.0 0.00 0.00 0.00 85 1020.8
20260508014504 35 274 5.0 9.0 0.00 0.00 0.00 85 1020.7
20260508013504 35 275 4.0 7.0 0.00 0.00 0.00 84 1020.6
20260508012505 35 275 4.0 8.0 0.00 0.00 0.00 84 1020.5
20260508011504 35 275 4.0 8.0 0.00 0.00 0.00 82 1020.5
20260508010504 35 275 4.0 7.0 0.00 0.00 0.00 82 1020.4
20260508005503 36 274 4.0 9.0 0.00 0.00 0.00 81 1020.4
20260508004505 36 268 4.0 9.0 0.00 0.00 0.00 81 1020.2
20260508003505 36 272 4.0 8.0 0.00 0.00 0.00 80 1020.1
20260508002505 36 269 4.0 8.0 0.00 0.00 0.00 79 1019.9
20260508001503 36 269 3.0 7.0 0.00 0.00 0.00 78 1019.9
20260508000503 37 271 3.0 6.0 0.00 0.00 0.00 77 1019.8
20260507235524 37 271 3.0 7.0 0.00 0.00 0.00 76 1019.7
20260507234524 37 291 4.0 7.0 0.00 0.00 0.00 76 1019.6
20260507233503 38 281 3.0 6.0 0.00 0.00 0.00 76 1019.5
20260507232503 38 275 3.0 6.0 0.00 0.00 0.00 75 1019.3
20260507231523 38 272 3.0 5.0 0.00 0.00 0.00 75 1019.2
20260507230504 38 264 2.0 5.0 0.00 0.00 0.00 73 1019.1
20260507225504 39 254 3.0 4.0 0.00 0.00 0.00 72 1018.9
20260507224504 39 277 3.0 5.0 0.00 0.00 0.00 71 1018.9
20260507223503 40 277 2.0 4.0 0.00 0.00 0.00 70 1018.8
20260507222523 40 268 3.0 5.0 0.00 0.00 0.00 68 1018.7
20260507221505 41 296 2.0 3.0 0.00 0.00 0.00 67 1018.6
20260507220504 41 302 3.0 6.0 0.00 0.00 0.00 67 1018.5
20260507215504 41 285 2.0 4.0 0.00 0.00 0.00 66 1018.4
20260507214525 41 307 2.0 7.0 0.00 0.00 0.00 65 1018.3
20260507213504 42 340 3.0 6.0 0.00 0.00 0.00 64 1018.1
20260507212503 41 357 2.0 4.0 0.00 0.00 0.00 62 1018.1
20260507211503 42 353 2.0 5.0 0.00 0.00 0.00 60 1018.0
20260507210505 42 342 2.0 6.0 0.00 0.00 0.00 59 1017.9
20260507205504 43 332 2.0 6.0 0.00 0.00 0.00 58 1017.9
20260507204504 43 345 3.0 10.0 0.00 0.00 0.00 56 1017.7
20260507203503 44 326 3.0 10.0 0.00 0.00 0.00 53 1017.8
20260507202505 44 308 5.0 9.0 0.00 0.00 0.00 49 1017.7
20260507201504 44 330 3.0 7.0 0.00 0.00 0.00 45 1017.4
20260507200504 45 315 3.0 7.0 0.00 0.00 0.00 43 1017.1
20260507195504 45 297 4.0 8.0 0.00 0.00 0.00 40 1017.0
20260507194503 47 315 4.0 10.0 0.00 0.00 0.00 36 1016.7
20260507193505 47 293 4.0 10.0 0.00 0.00 0.00 34 1016.6
20260507192505 46 270 2.0 5.0 0.00 0.00 0.00 45 1016.5
20260507191524 47 241 1.0 2.0 0.00 0.00 0.00 43 1016.3
20260507190504 48 268 1.0 1.0 0.00 0.00 0.00 42 1016.2
20260507185503 49 271 1.0 1.0 0.00 0.00 0.00 39 1016.2
20260507184504 49 169 1.0 2.0 0.00 0.00 0.00 37 1016.1
20260507183524 49 182 2.0 3.0 0.00 0.00 0.00 38 1016.1
20260507182504 49 92 1.0 2.0 0.00 0.00 0.00 40 1016.1
20260507181503 50 353 1.0 1.0 0.00 0.00 0.00 40 1016.1
20260507180505 50 353 1.0 2.0 0.00 0.00 0.00 41 1016.1
20260507175504 51 89 1.0 2.0 0.00 0.00 0.00 40 1016.0
20260507174524 51 56 1.0 2.0 0.00 0.00 0.00 38 1016.0
20260507173504 52 51 1.0 3.0 0.00 0.00 0.00 37 1015.9
20260507172503 52 58 2.0 4.0 0.00 0.00 0.00 36 1015.8
20260507171525 52 59 3.0 5.0 0.00 0.00 0.00 35 1015.8
20260507170504 53 71 3.0 4.0 0.00 0.00 0.00 35 1015.7
20260507165504 53 62 2.0 4.0 0.00 0.00 0.00 35 1015.7
20260507164503 53 62 3.0 6.0 0.00 0.00 0.00 34 1015.6
20260507163503 52 69 2.0 3.0 0.00 0.00 0.00 34 1015.7
20260507162505 52 72 2.0 3.0 0.00 0.00 0.00 35 1015.6
20260507161504 53 23 1.0 2.0 0.00 0.00 0.00 34 1015.6
20260507160504 53 320 0.0 1.0 0.00 0.00 0.00 35 1015.6
20260507155504 53 281 1.0 1.0 0.00 0.00 0.00 33 1015.6
20260507154503 53 316 1.0 2.0 0.00 0.00 0.00 32 1015.6
20260507153524 53 10 1.0 3.0 0.00 0.00 0.00 30 1015.6
20260507152524 54 15 3.0 6.0 0.00 0.00 0.00 31 1015.6
20260507151504 53 333 2.0 4.0 0.00 0.00 0.00 31 1015.6
20260507150503 54 290 2.0 5.0 0.00 0.00 0.00 31 1015.6
20260507145503 55 264 4.0 12.0 0.00 0.00 0.00 29 1015.7
20260507144504 56 341 3.0 5.0 0.00 0.00 0.00 29 1015.7
20260507143504 55 18 3.0 7.0 0.00 0.00 0.00 28 1015.7
20260507142504 55 53 2.0 5.0 0.00 0.00 0.00 28 1015.7
20260507141503 54 64 2.0 5.0 0.00 0.00 0.00 28 1015.7
20260507140504 54 321 3.0 6.0 0.00 0.00 0.00 29 1015.7
20260507135504 53 353 3.0 5.0 0.00 0.00 0.00 28 1015.6
20260507134504 53 90 4.0 6.0 0.00 0.00 0.00 30 1015.6
20260507133504 54 64 2.0 4.0 0.00 0.00 0.00 26 1015.6
20260507132503 55 235 3.0 7.0 0.00 0.00 0.00 27 1015.7